Satellite: AO-49
Catalog number: 27605
Epoch time:      05229.67413695
Element set:    0818
Inclination:      064.5600 deg
RA of node:       308.3793 deg
Eccentricity:    0.0077409
Arg of perigee:   227.6582 deg
Mean anomaly:     131.7941 deg
Mean motion:   14.72118529 rev/day
Decay rate:        4.8e-07 rev/day^2
Epoch rev:           14290
Checksum:              327

Satellite: SO-50
Catalog number: 27607
Epoch time:      05229.69904611
Element set:    0797
Inclination:      064.5606 deg
RA of node:       314.2756 deg
Eccentricity:    0.0077938
Arg of perigee:   226.2971 deg
Mean anomaly:     133.1658 deg
Mean motion:   14.71007133 rev/day
Decay rate:       1.43e-06 rev/day^2
Epoch rev:           14278
Checksum:              316

Satellite: AO-51
Catalog number: 28375
Epoch time:      05229.67184100
Element set:    0321
Inclination:      098.2122 deg
RA of node:       289.7804 deg
Eccentricity:    0.0085264
Arg of perigee:   045.3547 deg
Mean anomaly:     315.4553 deg
Mean motion:   14.40473575 rev/day
Decay rate:        4.0e-07 rev/day^2
Epoch rev:           05947
Checksum:              303

/EX
SB KEPS @ AMSAT  $ORB05230.W
Orbital Elements  05230.WEATHER

HR AMSAT ORBITAL ELEMENTS FOR WEATHER SATELLITES
FROM WA5QGD FORT WORTH,TX August 18, 2005
Send SUBSCRIBE KEPS/UNSUBSCRIBE KEPS to majordomo@amsat.org only
BID: ORB05230.W
TO ALL RADIO AMATEURS BT

Satellite: NOAA-10
Catalog number: 16969
Epoch time:      05229.73891169
Element set:    0843
Inclination:      098.7648 deg
RA of node:       235.6501 deg
Eccentricity:    0.0011742
Arg of perigee:   317.2473 deg
Mean anomaly:     042.7779 deg
Mean motion:   14.27265396 rev/day
Decay rate:       -4.0e-08 rev/day^2
Epoch rev:           98387
Checksum:              348

Satellite: NOAA-11
Catalog number: 19531
Epoch time:      05229.75266204
Element set:    0707
Inclination:      098.8460 deg
RA of node:       316.2380 deg
Eccentricity:    0.0012356
Arg of perigee:   130.7602 deg
Mean anomaly:     229.4645 deg
Mean motion:   14.14763141 rev/day
Decay rate:      -3.27e-06 rev/day^2
Epoch rev:           87163
Checksum:              291

Satellite: NOAA-12
Catalog number: 21263
Epoch time:      05229.94810064
Element set:    0197
Inclination:      098.7040 deg
RA of node:       219.9050 deg
Eccentricity:    0.0011918
Arg of perigee:   248.7717 deg
Mean anomaly:     111.2221 deg
Mean motion:   14.25464373 rev/day
Decay rate:       -2.1e-07 rev/day^2
Epoch rev:           74104
Checksum:              274

Satellite: MET-3/5
Catalog number: 21655
Epoch time:      05230.77751750
Element set:     892
Inclination:      082.5559 deg
RA of node:       114.4625 deg
Eccentricity:    0.0014385
Arg of perigee:   077.7069 deg
Mean anomaly:     282.5650 deg
Mean motion:   13.17003909 rev/day
Decay rate:        5.1e-07 rev/day^2
Epoch rev:           67355
Checksum:              313

Satellite: MET-2/21
Catalog number: 22782
Epoch time:      05229.81150370
Element set:     279
Inclination:      082.5468 deg
RA of node:       212.0923 deg
Eccentricity:    0.0021150
Arg of perigee:   313.5306 deg
Mean anomaly:     046.4097 deg
Mean motion:   13.83593780 rev/day
Decay rate:        4.4e-07 rev/day^2
Epoch rev:           60409
Checksum:              284

Satellite: OKEAN-4
Catalog number: 23317
Epoch time:      05229.71705420
Element set:    0710
Inclination:      082.5387 deg
RA of node:       200.0086 deg
Eccentricity:    0.0020854
Arg of perigee:   296.9364 deg
Mean anomaly:     062.9757 deg
Mean motion:   14.82205064 rev/day
Decay rate:       3.72e-06 rev/day^2
Epoch rev:           58502
Checksum:              289

Satellite: NOAA-14
Catalog number: 23455
Epoch time:      05229.72728948
Element set:    0720
Inclination:      099.0858 deg
RA of node:       279.0493 deg
Eccentricity:    0.0009424
Arg of perigee:   182.6138 deg
Mean anomaly:     177.4985 deg
Mean motion:   14.13587203 rev/day
Decay rate:      -2.00e-06 rev/day^2
Epoch rev:           54819
Checksum:              334

Satellite: SICH-1
Catalog number: 23657
Epoch time:      05229.70961098
Element set:    0513
Inclination:      082.5315 deg
RA of node:       340.8762 deg
Eccentricity:    0.0022485
Arg of perigee:   282.1671 deg
Mean anomaly:     077.7015 deg
Mean motion:   14.81211432 rev/day
Decay rate:       1.47e-06 rev/day^2
Epoch rev:           53706
Checksum:              290

Satellite: NOAA-15
Catalog number: 25338
Epoch time:      05229.73972893
Element set:    0150
Inclination:      098.5131 deg
RA of node:       236.2027 deg
Eccentricity:    0.0010482
Arg of perigee:   174.4839 deg
Mean anomaly:     185.6457 deg
Mean motion:   14.24532368 rev/day
Decay rate:        4.0e-07 rev/day^2
Epoch rev:           37751
Checksum:              311

Satellite: RESURS
Catalog number: 25394
Epoch time:      05229.97120628
Element set:    0164
Inclination:      098.5370 deg
RA of node:       297.4159 deg
Eccentricity:    0.0001499
Arg of perigee:   019.5548 deg
Mean anomaly:     340.5691 deg
Mean motion:   14.24075975 rev/day
Decay rate:       -5.0e-08 rev/day^2
Epoch rev:           36924
Checksum:              324

Satellite: FENGYUN1
Catalog number: 25730
Epoch time:      05230.57340231
Element set:     490
Inclination:      098.6088 deg
RA of node:       229.8696 deg
Eccentricity:    0.0013720
Arg of perigee:   285.6316 deg
Mean anomaly:     074.3334 deg
Mean motion:   14.11796904 rev/day
Decay rate:      -1.12e-06 rev/day^2
Epoch rev:           32331
Checksum:              283

